CZ-3A DEB, 35552

Orbit data source: Space-Track

CZ-3A DEB, 35552 is space debris in HEO originally from a launch on Fri, 02 Feb 2007 UTC launched from the Xichang Space Center, China (XSC). Debris objects in space refer to the collection of defunct objects orbiting the Earth. Examples of debris include non-operational satellites, rocket bodies, and fragments generated from explosions, collisions, or faulty payload assembly.

Loading next visibility...
Identifier
35552, 2007-003L
Orbit
HEO
Country
Flag of CNCN / PRC
Related business
Manufacturer
Unknown
Mission
Spacecraft
Bus & Motor
Unknown
Mass
Unknown
Launch date (UTC)
2007-02-02 (19 years ago)
Launch vehicle
Unknown
Launch site
Xichang Space Center, China (XSC)
Object type
Payload
Rocket body
Debris
Shape & HBR
Unknown shape, 0.3 m
Radar Cross Section
Medium (>0.1 m² and <1 m²)

Expand to show TLE details & history
Last TLE update: 3 days ago

TLE from 3 days ago
0 CZ-3A DEB
1 35552U 07003L   26170.68612651  .00000982  00000-0  49981-2 0  9993
2 35552  25.9737  55.4447 7419661 129.6450 322.9087  2.02850388130589
Epoch: 2026-06-19T16:28Z
TLE epoch observation values (Epoch: 2026-06-19T16:28:01.330Z)
Latitude
0.00017°
Longitude
-99.48546°
Altitude
16,158.016 km
Speed
4.5 km/s
True Right ascension
03h 41m 43s
True Declination
0° 00' 01"
Sunlit
Object was in daylight at epoch
Visualization orbit readout
Latitude
Unknown
Longitude
Unknown
Altitude
Unknown
Speed
Unknown
Apparent Right ascension
Unknown
Apparent Declination
Unknown
Sunlit
N/A
Visualization observer readout
Local Sidereal Time
07:07:43
Azimuth
Unknown
Elevation
Unknown
Doppler factor
Unknown
Orbital elements
Apogee altitude
39,547.618 km
Perigee altitude
424.752 km
Semi-major axis
26,364.322 km
Eccentricity
0.74197
Inclination
25.9737°
RAAN
55.4447°
Arg. of periapsis
129.645°
True anomaly
230.21741°
Mean anomaly
322.9087°
Eccentric anomaly
281.20794°
Mean motion
0.50701 °/min
Orbital period
710.04 mins
BSTAR
0.0049981
Loading maneuver chart data...
Computing Atmospheric mass density...
Loading historical data...
Loading historical data...
Loading historical data...
Loading historical data...
Loading historical data...
Loading historical data...
Loading historical data...

Documentation

Showing up to 5 results
|